Regional Weather Roundup
Issued by NWS Little Rock, AR

Home | Current Version | Previous Version | Graphics & Text | Print | Product List | Glossary On
Versions: 1 2 3 4 5 6 7 8 9 10 11 12 13 14 15 16 17 18 19 20 21 22 23 24 25 26 27 28 29 30 31 32 33 34 35 36 37 38 39 40 41 42 43 44 45 46 47 48 49 50
000
ASUS44 KLZK 270505
RWRLZK

WEATHER ROUNDUP FOR ARKANSAS
NATIONAL WEATHER SERVICE LITTLE ROCK AR
1100 PM CST WED NOV 26 2014

NOTE: "FAIR" INDICATES FEW OR NO CLOUDS BELOW 12,000 FEET WITH NO
SIGNIFICANT WEATHER AND/OR OBSTRUCTIONS TO VISIBILITY.

ARZ001-003-010-029-270600-
NORTHWEST ARKANSAS

CITY           SKY/WX    TMP DP  RH WIND       PRES   REMARKS
FAYETTEVILLE   CLEAR     33  25  72 NW14G23   30.33R WCI  23
FORT SMITH     CLEAR     41  26  55 N9        30.36R
HARRISON       PTCLDY    34  26  72 NW12      30.26R WCI  25
BENTONVILLE    CLEAR     34  23  64 NW9       30.34R WCI  26
ROGERS         PTCLDY    32  26  78 NW8       30.33R WCI  25
SILOAM SPGS    CLEAR     32  19  59 NW13      30.36R WCI  22
HIGHFILL       CLEAR     32  24  72 NW10      30.33R WCI  24
$$

ARZ004-005-016-270600-
NORTH CENTRAL ARKANSAS

CITY           SKY/WX    TMP DP  RH WIND       PRES   REMARKS
BATESVILLE     CLEAR     43  27  52 W15G21    30.22R
FLIPPIN        CLEAR     37  23  56 W16G23    30.27R
MTN HOME       CLEAR     36  27  69 NW9       30.24R
$$

ARZ040-041-270600-
WEST CENTRAL ARKANSAS

CITY           SKY/WX    TMP DP  RH WIND       PRES   REMARKS
MENA           CLEAR     45  28  53 NW6G18    30.32R
MOUNT IDA      CLEAR     44  25  47 NW9G17    30.28R
$$

ARZ009-017-025-026-028-270600-
NORTHEAST ARKANSAS

CITY           SKY/WX    TMP DP  RH WIND       PRES   REMARKS
CORNING        CLOUDY    39  32  75 NW8       30.19R
JONESBORO      PTCLDY    42  29  59 W12       30.18R
NEWPORT        CLEAR     43  28  55 NW20G26   30.22R
WALNUT RIDGE   CLEAR     39  27  60 NW10G17   30.20R
BLYTHEVILLE    PTCLDY    44  34  67 CALM      30.17R
$$

ARZ022-023-033-042-044-270600-
CENTRAL ARKANSAS

CITY           SKY/WX    TMP DP  RH WIND       PRES   REMARKS
LITTLE ROCK    CLEAR     46  26  45 NW6       30.27R
N LITTLE ROCK  CLEAR     44  29  57 NW8       30.27R
JACKSONVILLE   CLEAR     42  28  55 W7        30.26R
SEARCY         CLEAR     42  28  57 NW9G17    30.26R
HOT SPRINGS    CLEAR     46  27  47 NW6       30.29R
RUSSELLVILLE   CLEAR     42  26  53 VRB3      30.29R
CLINTON        FAIR      41  27  56 NW8G17    30.27R
$$

ARZ036-270600-
EAST ARKANSAS

CITY           SKY/WX    TMP DP  RH WIND       PRES   REMARKS
WEST MEMPHIS   CLEAR     42  31  64 NW8       30.19R
$$

ARZ050-053-066-070-073-270600-
SOUTHWEST ARKANSAS

CITY           SKY/WX    TMP DP  RH WIND       PRES   REMARKS
ARKADELPHIA    FAIR      43  32  65 NW8       30.31R
CAMDEN         CLEAR     41  32  70 CALM      30.29R
TEXARKANA      CLEAR     47  31  53 NW8       30.32R
EL DORADO      CLEAR     45  33  63 W7        30.29R
DE QUEEN       CLEAR     45  28  51 NW9       30.32R
$$

ARZ056-057-069-270600-
SOUTHEAST ARKANSAS

CITY           SKY/WX    TMP DP  RH WIND       PRES   REMARKS
PINE BLUFF     CLEAR     47  28  47 W12       30.26R
STUTTGART      CLEAR     43  30  61 NW14      30.25R
MONTICELLO     CLEAR     48  29  47 W8        30.25R

$$




USA.gov is the U.S. government's official web portal to all federal, state and local government web resources and services.